Location: Cahas Mountain Overlook
(37.0833°N, 80.1000°W)
Time: 22:12:33
(UTC-05:00)

Transit 2A - Visible Passes

Search period start: 27 January 2022 00:00
Search period end: 06 February 2022 00:00
Orbit: 591 x 966 km, 66.7° (Epoch: 27 January)

Date Brightness Start Highest point End Pass type
(mag) Time Alt. Az. Time Alt. Az. Time Alt. Az.
27 Jan 7.4 18:58:41 10° N 19:03:20 23° NE 19:03:35 22° NE visible
27 Jan 7.9 20:41:15 10° NW 20:44:07 28° NW 20:44:07 28° NW visible
28 Jan 7.7 18:25:01 10° N 18:28:45 17° NE 18:31:12 13° ENE visible
28 Jan 6.5 20:06:55 10° NNW 20:11:46 60° NW 20:11:46 60° NW visible
29 Jan 6.0 19:32:40 10° NNW 19:38:37 67° ENE 19:39:40 54° ESE visible
29 Jan 8.7 21:17:52 10° WNW 21:20:15 15° W 21:20:15 15° W visible
30 Jan 6.4 18:58:33 10° NNW 19:04:17 46° ENE 19:07:55 19° ESE visible
30 Jan 8.1 20:42:38 10° NW 20:47:03 23° WSW 20:48:31 21° SW visible
31 Jan 6.9 18:24:32 10° N 18:29:51 32° NE 18:34:42 10° ESE visible
31 Jan 7.6 20:07:52 10° NW 20:13:03 35° WSW 20:17:21 12° S visible
01 Feb 6.9 19:33:19 10° NW 19:38:59 53° WSW 19:44:03 10° S visible
02 Feb 6.2 18:58:56 10° NNW 19:04:49 79° WSW 19:10:04 10° SSE visible
03 Feb 6.1 18:24:41 10° NNW 18:30:35 71° ENE 18:35:50 10° SE visible
03 Feb 9.0 20:10:13 10° WNW 20:12:54 14° W 20:15:29 10° SW visible
04 Feb 8.6 19:34:48 10° WNW 19:38:58 21° WSW 19:42:50 10° SSW visible
05 Feb 8.0 18:59:57 10° NW 19:04:58 32° WSW 19:09:32 10° S visible
